Date String (YYYY-MM-DD hh:mm:ss) UTC,Instrument flags,Ambient pressure (hPa),Sample flow (lpm),Bypass flow (lpm),Sample temperature (°C),Ambient temperature (°C),ASC tube jacket temperature (°C),LED temperature (°C),Box temperature (°C),Sample RH (%),Span deviation,Mass concentration (μg/m³),Mass concentration (μg/m³),Mass concentration (μg/m³)
DateTimeUTC,F1_M11,P_M11,Q1_M11,Q2_M11,T1_M11,T2_M11,T3_M11,T4_M11,T5_M11,U1_M11,ZSPAN_M11,X0_M11,X2_M11,X1_M11
2022-03-25 00:00:00,,0824.5,5.00,0.00,29.2,28.4,00.0,38.1,31.0,08.1,0000.0,0005.47,0002.68,0001.19
2022-03-25 00:01:00,,0824.6,4.99,0.00,29.2,28.4,00.0,38.1,30.9,08.1,0000.0,0005.43,0002.68,0001.20
2022-03-25 00:02:00,,0824.6,5.00,0.00,29.1,28.4,00.0,38.1,30.9,08.3,0000.0,0005.46,0002.70,0001.21
2022-03-25 00:03:00,,0824.6,5.01,0.00,29.1,28.4,00.0,38.1,30.9,08.4,0000.0,0005.38,0002.64,0001.19
2022-03-25 00:04:00,,0824.6,4.99,0.00,29.2,28.4,00.0,38.1,30.9,08.4,0000.0,0005.84,0002.64,0001.20
2022-03-25 00:05:00,,0824.6,5.00,0.00,29.2,28.4,00.0,38.1,30.9,08.4,0000.0,0006.60,0002.69,0001.21
2022-03-25 00:06:00,,0824.6,4.99,0.00,29.1,28.4,00.0,38.1,30.9,08.4,0000.0,0007.16,0002.78,0001.23
2022-03-25 00:07:00,,0824.6,5.00,0.00,29.1,28.4,00.0,38.1,30.9,08.1,0000.0,0007.17,0002.78,0001.25
2022-03-25 00:08:00,,0824.6,4.99,0.00,29.1,28.4,00.0,38.1,30.9,08.2,0000.0,0007.13,0002.77,0001.24
2022-03-25 00:09:00,,0824.6,5.02,0.00,29.1,28.4,00.0,38.1,30.9,08.3,0000.0,0007.16,0002.79,0001.24
2022-03-25 00:10:00,,0824.6,5.00,0.00,29.1,28.4,00.0,38.1,30.9,08.5,0000.0,0007.39,0002.83,0001.23
2022-03-25 00:11:00,,0824.6,5.00,0.00,29.1,28.3,00.0,38.1,30.9,08.6,0000.0,0007.37,0002.78,0001.20
2022-03-25 00:12:00,,0824.5,5.02,0.00,29.1,28.3,00.0,38.1,30.9,08.5,0000.0,0007.34,0002.76,0001.20
2022-03-25 00:13:00,,0824.5,4.99,0.00,29.1,28.3,00.0,38.1,30.8,08.6,0000.0,0007.32,0002.74,0001.19
2022-03-25 00:14:00,,0824.5,4.99,0.00,29.1,28.3,00.0,38.1,30.8,08.6,0000.0,0007.45,0002.73,0001.18
2022-03-25 00:15:00,,0824.6,4.99,0.00,29.1,28.3,00.0,38.1,30.8,08.7,0000.0,0007.49,0002.75,0001.18
2022-03-25 00:16:00,,0824.4,5.02,0.00,29.1,28.3,00.0,38.1,30.9,08.6,0000.0,0006.91,0002.67,0001.17
2022-03-25 00:17:00,,0824.5,5.00,0.00,29.1,28.2,00.0,38.1,30.9,08.6,0000.0,0006.44,0002.61,0001.16
2022-03-25 00:18:00,,0824.5,4.99,0.00,29.1,28.2,00.0,38.1,30.9,08.6,0000.0,0006.50,0002.59,0001.15
2022-03-25 00:19:00,,0824.5,5.00,0.00,29.1,28.2,00.0,38.1,30.9,08.6,0000.0,0006.36,0002.52,0001.14
2022-03-25 00:20:00,,0824.5,5.01,0.00,29.1,28.2,00.0,38.1,30.9,08.5,0000.0,0006.15,0002.41,0001.12
2022-03-25 00:21:00,,0824.6,5.00,0.00,29.1,28.2,00.0,38.1,30.8,08.5,0000.0,0005.94,0002.40,0001.14
2022-03-25 00:22:00,,0824.6,5.00,0.00,29.1,28.1,00.0,38.1,30.8,08.6,0000.0,0005.95,0002.42,0001.14
2022-03-25 00:23:00,,0824.6,5.01,0.00,29.1,28.2,00.0,38.1,30.8,08.6,0000.0,0005.95,0002.45,0001.15
2022-03-25 00:24:00,,0824.6,5.01,0.00,29.1,28.2,00.0,38.1,30.8,08.5,0000.0,0005.89,0002.44,0001.15
2022-03-25 00:25:00,,0824.6,4.99,0.00,29.1,28.2,00.0,38.1,30.8,08.5,0000.0,0005.58,0002.40,0001.15
2022-03-25 00:26:00,,0824.6,5.01,0.00,29.1,28.1,00.0,38.1,30.8,08.5,0000.0,0005.43,0002.43,0001.14
2022-03-25 00:27:00,,0824.8,4.99,0.00,29.1,28.1,00.0,38.1,30.8,08.4,0000.0,0005.63,0002.51,0001.15
2022-03-25 00:28:00,,0824.6,5.01,0.00,29.1,28.1,00.0,38.1,30.8,08.4,0000.0,0005.59,0002.53,0001.16
2022-03-25 00:29:00,,0824.7,5.00,0.00,29.1,28.1,00.0,38.1,30.8,08.3,0000.0,0005.34,0002.48,0001.17
2022-03-25 00:30:00,,0824.7,4.99,0.00,29.1,28.1,00.0,38.1,30.8,08.3,0000.0,0005.35,0002.51,0001.17
2022-03-25 00:31:00,,0824.7,5.00,0.00,29.1,28.1,00.0,38.0,30.8,08.4,0000.0,0005.34,0002.52,0001.19
2022-03-25 00:32:00,,0824.7,5.01,0.00,29.1,28.1,00.0,38.0,30.8,08.4,0000.0,0005.38,0002.53,0001.18
2022-03-25 00:33:00,,0824.8,4.99,0.00,29.1,28.1,00.0,38.0,30.8,08.4,0000.0,0005.41,0002.52,0001.19
2022-03-25 00:34:00,,0824.8,4.99,0.00,29.1,28.1,00.0,38.0,30.8,08.3,0000.0,0006.57,0002.57,0001.20
2022-03-25 00:35:00,,0824.8,5.01,0.00,29.1,28.1,00.0,38.0,30.8,08.4,0000.0,0007.09,0002.65,0001.21
2022-03-25 00:36:00,,0824.8,5.01,0.00,29.1,28.1,00.0,38.0,30.8,08.2,0000.0,0007.22,0002.72,0001.23
2022-03-25 00:37:00,,0824.8,4.99,0.00,29.1,28.1,00.0,38.0,30.8,08.2,0000.0,0007.30,0002.76,0001.23
2022-03-25 00:38:00,,0824.9,5.01,0.00,29.1,28.1,00.0,38.0,30.8,08.3,0000.0,0007.32,0002.81,0001.25
2022-03-25 00:39:00,,0824.9,4.99,0.00,29.1,28.1,00.0,38.0,30.8,08.3,0000.0,0007.32,0002.83,0001.25
2022-03-25 00:40:00,,0825.0,4.99,0.00,29.1,28.1,00.0,38.0,30.8,08.4,0000.0,0007.35,0002.85,0001.24
2022-03-25 00:41:00,,0825.1,5.02,0.00,29.0,28.1,00.0,38.0,30.8,08.4,0000.0,0007.45,0002.91,0001.26
2022-03-25 00:42:00,,0825.1,4.99,0.00,29.0,28.1,00.0,38.0,30.7,08.5,0000.0,0007.58,0002.98,0001.27
2022-03-25 00:43:00,,0825.1,4.99,0.00,29.0,28.1,00.0,38.0,30.7,08.5,0000.0,0007.58,0002.97,0001.28
2022-03-25 00:44:00,,0825.1,5.01,0.00,29.0,28.2,00.0,38.0,30.7,08.6,0000.0,0007.54,0002.99,0001.29
2022-03-25 00:45:00,,0825.2,5.01,0.00,29.0,28.2,00.0,38.0,30.7,08.5,0000.0,0006.70,0002.97,0001.30
2022-03-25 00:46:00,,0825.2,4.99,0.00,29.0,28.2,00.0,38.0,30.7,08.5,0000.0,0006.42,0002.98,0001.32
2022-03-25 00:47:00,,0825.2,5.01,0.00,29.0,28.2,00.0,38.0,30.7,08.4,0000.0,0006.50,0002.93,0001.30
2022-03-25 00:48:00,,0825.2,4.99,0.00,29.0,28.2,00.0,38.0,30.7,08.4,0000.0,0006.21,0002.84,0001.28
2022-03-25 00:49:00,,0825.2,5.00,0.00,29.0,28.2,00.0,38.0,30.8,08.3,0000.0,0005.84,0002.70,0001.27
2022-03-25 00:50:00,,0825.3,5.02,0.00,29.0,28.2,00.0,38.0,30.7,08.4,0000.0,0005.69,0002.64,0001.26
2022-03-25 00:51:00,,0825.2,5.00,0.00,29.0,28.2,00.0,38.0,30.7,08.4,0000.0,0005.78,0002.65,0001.26
2022-03-25 00:52:00,,0825.2,4.99,0.00,29.0,28.2,00.0,38.0,30.7,08.3,0000.0,0006.02,0002.71,0001.26
2022-03-25 00:53:00,,0825.2,5.01,0.00,29.0,28.2,00.0,38.0,30.7,08.3,0000.0,0006.05,0002.72,0001.24
2022-03-25 00:54:00,,0825.2,5.00,0.00,29.0,28.2,00.0,38.0,30.7,08.3,0000.0,0006.05,0002.70,0001.23
2022-03-25 00:55:00,,0825.3,4.99,0.00,29.0,28.2,00.0,38.0,30.7,08.3,0000.0,0006.11,0002.72,0001.21
2022-03-25 00:56:00,,0825.3,4.99,0.00,29.0,28.2,00.0,38.0,30.7,08.4,0000.0,0006.09,0002.68,0001.17
2022-03-25 00:57:00,,0825.3,5.01,0.00,29.0,28.2,00.0,38.0,30.7,08.4,0000.0,0005.87,0002.65,0001.15
2022-03-25 00:58:00,,0825.3,5.01,0.00,29.0,28.2,00.0,38.0,30.7,08.3,0000.0,0005.65,0002.64,0001.16
2022-03-25 00:59:00,,0825.2,4.98,0.00,29.0,28.2,00.0,38.0,30.6,08.3,0000.0,0005.47,0002.57,0001.16
